Weather reports worldwide

Advertisment
Plymouth, United Kingdom (3827): temperature & dewpoint: 18.06.2017 23:00:00 - 24.06.2017 23:00:00 (BST)Plymouth, United Kingdom (3827): temperature 5cm: 18.06.2017 23:00:00 - 24.06.2017 23:00:00 (BST)Plymouth, United Kingdom (3827): wind speed & gusts: 18.06.2017 23:00:00 - 24.06.2017 23:00:00 (BST)Plymouth, United Kingdom (3827): wind direction: 18.06.2017 23:00:00 - 24.06.2017 23:00:00 (BST)Plymouth, United Kingdom (3827): reduced air pressure: 18.06.2017 23:00:00 - 24.06.2017 23:00:00 (BST)Plymouth, United Kingdom (3827): visibility: 18.06.2017 23:00:00 - 24.06.2017 23:00:00 (BST)Plymouth, United Kingdom (3827): precipitation: 18.06.2017 23:00:00 - 24.06.2017 23:00:00 (BST)
Date & Time tt [°C] td [°C] tt 5cm [°C] ff [km/h] ff [kn] fx [km/h] fx [kn] dd ppp [hPa] vv [km] rr [mm]
24.06.2017 23:00:00 14,7 13,1 - 18 10 - - WSW 1016,1 18 0,0
24.06.2017 22:00:00 14,9 12,8 - 15 8 - - W 1015,9 21 0,0
24.06.2017 21:00:00 15,4 13,0 - 21 11 - - W 1015,6 25 0,0
24.06.2017 20:00:00 15,9 13,5 - 21 11 - - W 1015,2 24 0,0
24.06.2017 19:00:00 16,5 13,9 - 18 10 - - WSW 1015,0 27 0,0
24.06.2017 18:00:00 17,1 15,0 - 21 11 - - WSW 1014,9 18 0,0
24.06.2017 17:00:00 18,4 16,2 - 18 10 - - SW 1014,9 19 0,0
24.06.2017 16:00:00 17,9 16,1 - 22 12 - - SW 1015,2 19 0,0
24.06.2017 15:00:00 17,9 16,2 - 16 9 - - SW 1015,7 10 0,0
24.06.2017 14:00:00 17,9 16,8 - 21 11 - - SW 1015,9 10 0,0
24.06.2017 13:00:00 17,5 16,3 - 18 10 - - SW 1016,2 13 0,0
24.06.2017 12:00:00 17,0 16,4 - 21 11 - - SW 1016,1 10 0,0
24.06.2017 11:00:00 17,2 16,8 - 21 11 - - SW 1016,0 19 0,2
24.06.2017 10:00:00 16,5 16,5 - 16 9 - - WSW 1016,1 10 0,0
24.06.2017 09:00:00 16,1 16,1 - 16 9 - - WSW 1016,3 14 0,0
24.06.2017 08:00:00 15,6 15,5 - 22 12 - - WSW 1016,4 4,7 0,2
24.06.2017 07:00:00 15,6 15,5 - 21 11 - - WSW 1016,4 1,6 0,6
24.06.2017 06:00:00 15,5 15,5 - 21 11 - - WSW 1016,4 2,8 0,2
24.06.2017 05:00:00 15,4 15,3 - 24 13 - - WSW 1016,6 4,0 0,4
24.06.2017 04:00:00 15,3 15,2 - 21 11 - - WSW 1017,1 1,5 0,0
24.06.2017 03:00:00 15,6 15,0 - 22 12 - - WSW 1017,5 3,0 0,0
24.06.2017 02:00:00 15,7 14,9 - 24 13 - - WSW 1017,8 8 0,0
24.06.2017 01:00:00 15,4 14,7 - 24 13 - - WSW 1018,3 9 0,0
24.06.2017 00:00:00 15,1 14,3 - 22 12 - - WSW 1018,7 8 0,0
23.06.2017 23:00:00 15,8 13,7 - 21 11 - - WSW 1018,9 14 0,0
23.06.2017 22:00:00 15,8 13,6 - 24 13 - - WSW 1018,9 13 0,0
23.06.2017 21:00:00 15,9 13,6 - 22 12 - - WSW 1018,9 15 0,0
23.06.2017 20:00:00 16,2 13,5 - 28 15 - - WSW 1018,7 15 0,0
23.06.2017 19:00:00 17,1 13,5 - 31 17 48 26 SW 1018,6 13 -
23.06.2017 18:00:00 19,2 15,5 - 31 17 46 25 SW 1018,9 9 0,0
23.06.2017 17:00:00 18,1 16,4 - 28 15 50 27 SW 1019,2 11 0,0
23.06.2017 16:00:00 17,1 14,7 - 35 19 52 28 SW 1019,2 17 0,0
23.06.2017 15:00:00 18,7 14,9 - 31 17 52 28 SW 1019,3 12 0,0
23.06.2017 14:00:00 18,7 14,5 - 34 18 48 26 SW 1019,4 17 0,0
23.06.2017 13:00:00 19,7 13,9 - 34 18 - - SW 1019,4 25 0,0
23.06.2017 12:00:00 18,7 12,9 - 34 18 - - SW 1019,3 15 0,0
23.06.2017 11:00:00 17,9 13,4 - 24 13 - - WSW 1019,7 14 0,0
23.06.2017 10:00:00 16,7 12,8 - 26 14 - - WSW 1019,5 30 0,0
23.06.2017 09:00:00 15,7 12,2 - 22 12 - - WSW 1019,3 30 0,0
23.06.2017 08:00:00 15,3 11,8 - 22 12 - - W 1018,9 29 0,0
23.06.2017 07:00:00 15,1 11,9 - 22 12 - - WSW 1018,7 16 0,0
23.06.2017 06:00:00 14,5 11,4 - 13 7 - - WSW 1018,4 28 0,0
23.06.2017 05:00:00 14,3 10,8 - 13 7 - - W 1018,6 23 0,0
23.06.2017 04:00:00 14,5 10,4 - 24 13 - - W 1018,5 18 0,0
23.06.2017 03:00:00 14,5 11,3 - 21 11 - - W 1018,6 28 0,0
23.06.2017 02:00:00 14,1 11,1 - 15 8 - - WSW 1018,7 23 0,0
23.06.2017 01:00:00 13,9 10,9 - 15 8 - - W 1018,7 22 0,0
23.06.2017 00:00:00 14,1 10,6 - 15 8 - - WNW 1018,4 16 0,0
22.06.2017 23:00:00 14,5 11,1 - 16 9 - - WNW 1018,3 19 0,0
22.06.2017 22:00:00 14,7 11,7 - 18 10 - - W 1017,5 22 0,0
22.06.2017 21:00:00 15,6 12,4 - 21 11 - - W 1017,1 35 0,0
22.06.2017 20:00:00 16,5 13,3 - 16 9 - - W 1016,8 18 0,0
22.06.2017 19:00:00 16,7 13,4 - 24 13 - - W 1016,7 22 0,0
22.06.2017 18:00:00 17,8 14,1 - 21 11 - - WSW 1016,3 19 0,0
22.06.2017 17:00:00 18,0 12,7 - 16 9 - - WNW 1016,1 30 0,0
22.06.2017 16:00:00 17,8 13,1 - 18 10 - - WNW 1016,0 20 0,0
22.06.2017 15:00:00 18,7 14,2 - 16 9 - - WSW 1015,8 15 0,0
22.06.2017 14:00:00 18,0 14,5 - 21 11 - - W 1015,7 24 0,0
22.06.2017 13:00:00 17,5 13,6 - 21 11 - - W 1015,6 20 0,0
22.06.2017 12:00:00 17,9 14,2 - 21 11 - - W 1015,3 18 0,0
22.06.2017 11:00:00 17,4 13,8 - 21 11 - - WSW 1015,0 23 0,0
22.06.2017 10:00:00 18,6 15,2 - 15 8 - - W 1014,6 22 0,0
22.06.2017 09:00:00 16,9 13,4 - 21 11 - - W 1014,4 30 0,0
22.06.2017 08:00:00 16,5 13,4 - 18 10 - - W 1014,2 21 0,0
22.06.2017 07:00:00 16,4 13,4 - 22 12 - - W 1013,7 30 0,0
22.06.2017 06:00:00 16,1 14,1 - 13 7 - - WSW 1013,3 14 0,0
22.06.2017 05:00:00 16,2 13,9 - 13 7 - - W 1013,3 12 0,0
22.06.2017 04:00:00 16,3 14,5 - 15 8 - - W 1013,3 15 0,0
22.06.2017 03:00:00 16,2 14,7 - 11 6 - - W 1013,4 9 0,0
22.06.2017 02:00:00 16,4 14,7 - 13 7 - - W 1013,9 9 0,0
22.06.2017 01:00:00 17,0 16,0 - 15 8 - - WSW 1013,7 7 0,0
22.06.2017 00:00:00 17,1 16,2 - 13 7 - - SW 1013,8 7 0,0
21.06.2017 23:00:00 16,9 16,2 - 18 10 - - SW 1013,9 9 0,0
21.06.2017 22:00:00 16,9 16,4 - 15 8 - - SSW 1013,5 5 0,0
21.06.2017 21:00:00 17,0 16,7 - 15 8 - - SW 1013,3 1,9 0,0
21.06.2017 20:00:00 17,4 16,7 - 13 7 - - SSW 1013,4 0,6 0,0
21.06.2017 19:00:00 19,5 16,7 - 16 9 - - SSW 1013,6 8 0,0
21.06.2017 18:00:00 20,6 16,3 - 15 8 - - SSW 1013,1 10 0,0
21.06.2017 17:00:00 21,9 17,0 - 13 7 - - SSW 1013,3 9 0,0
21.06.2017 16:00:00 22,3 17,1 - 15 8 - - SW 1013,4 10 0,0
21.06.2017 15:00:00 21,2 16,4 - 18 10 - - SW 1014,1 9 0,0
21.06.2017 14:00:00 23,3 18,1 - 18 10 - - S 1013,4 11 0,0
21.06.2017 13:00:00 27,8 19,0 - 9 5 - - E 1013,2 17 0,0
21.06.2017 12:00:00 26,2 18,4 - 16 9 - - E 1013,4 14 0,0
21.06.2017 11:00:00 25,2 17,9 - 16 9 - - E 1013,1 19 0,0
21.06.2017 10:00:00 24,0 17,7 24,0 18 10 - - E 1013,4 21 0,0
21.06.2017 09:00:00 22,7 16,7 - 18 10 - - E 1013,5 10 0,0
21.06.2017 08:00:00 21,9 16,0 - 18 10 - - ENE 1013,7 14 0,0
21.06.2017 07:00:00 20,8 16,2 - 15 8 - - ENE 1013,9 13 0,0
21.06.2017 06:00:00 19,9 15,7 - 16 9 - - ENE 1014,2 16 0,0
21.06.2017 05:00:00 19,7 15,4 - 16 9 - - E 1013,7 14 0,0
21.06.2017 04:00:00 19,4 14,5 - 18 10 - - E 1014,0 16 0,0
21.06.2017 03:00:00 19,5 14,2 - 15 8 - - E 1014,6 13 0,0
21.06.2017 02:00:00 19,8 14,5 - 18 10 - - E 1014,8 13 0,0
21.06.2017 01:00:00 20,4 14,9 - 18 10 - - E 1015,2 10 0,0
21.06.2017 00:00:00 20,7 14,9 - 15 8 - - E 1015,5 16 0,0
20.06.2017 23:00:00 21,4 15,1 - 9 5 - - E 1015,9 16 0,0
20.06.2017 22:00:00 22,2 15,4 - 15 8 - - E 1015,9 27 0,0
20.06.2017 21:00:00 23,5 15,7 - 15 8 - - E 1015,5 22 0,0
20.06.2017 20:00:00 25,0 16,4 - 11 6 - - ENE 1015,5 24 0,0
20.06.2017 19:00:00 26,7 16,9 - 13 7 - - E 1015,3 18 0,0
20.06.2017 18:00:00 27,7 16,1 - 13 7 - - E 1015,4 16 0,0
20.06.2017 17:00:00 27,8 15,0 - 18 10 - - E 1015,5 35 0,0
20.06.2017 16:00:00 28,0 15,7 - 21 11 - - E 1015,8 23 0,0
20.06.2017 15:00:00 28,8 16,5 - 2 1 - - NW 1016,1 26 0,0
20.06.2017 14:00:00 28,5 16,3 - 18 10 - - E 1016,3 30 0,0
20.06.2017 13:00:00 28,3 17,6 - 15 8 - - ENE 1016,6 15 0,0
20.06.2017 12:00:00 27,3 17,1 - 16 9 - - ENE 1016,7 13 0,0
20.06.2017 11:00:00 26,7 17,2 - 15 8 - - E 1016,5 16 0,0
20.06.2017 10:00:00 25,5 17,2 25,5 15 8 - - ENE 1016,4 30 0,0
20.06.2017 09:00:00 23,5 17,8 - 9 5 - - ENE 1016,7 14 0,0
20.06.2017 08:00:00 19,8 16,8 - 4 2 - - N 1017,0 14 0,0
20.06.2017 07:00:00 18,1 16,1 - 8 4 - - E 1016,9 19 0,0
20.06.2017 06:00:00 17,9 15,4 - 11 6 - - E 1016,6 17 0,0
20.06.2017 05:00:00 17,1 15,5 - 8 4 - - ENE 1016,5 15 0,0
20.06.2017 04:00:00 17,4 16,1 - 8 4 - - ENE 1016,9 12 0,0
20.06.2017 03:00:00 17,3 16,6 - 2 1 - - NE 1017,3 9 0,0
20.06.2017 02:00:00 17,3 16,1 - 5 3 - - W 1017,5 21 0,0
20.06.2017 01:00:00 18,2 16,4 - 8 4 - - ENE 1017,4 14 0,0
20.06.2017 00:00:00 18,6 16,0 - 2 1 - - N 1017,7 14 0,0
19.06.2017 23:00:00 20,1 16,2 - 4 2 - - ENE 1017,7 24 0,0
19.06.2017 22:00:00 20,2 16,0 - 5 3 - - NE 1017,6 14 0,0
19.06.2017 21:00:00 22,5 15,6 - 2 1 - - SE 1017,6 21 0,0
19.06.2017 20:00:00 25,2 16,4 - 9 5 - - ESE 1017,5 26 0,0
19.06.2017 19:00:00 26,9 16,7 - 8 4 - - E 1017,3 14 0,0
19.06.2017 18:00:00 27,3 16,8 - 11 6 - - E 1017,1 19 0,0
19.06.2017 17:00:00 27,7 17,2 - 11 6 - - ENE 1017,3 29 0,0
19.06.2017 16:00:00 28,4 17,6 - 8 4 - - E 1017,6 22 0,0
19.06.2017 15:00:00 28,5 17,5 - 9 5 - - E 1017,8 15 0,0
19.06.2017 14:00:00 27,8 17,2 - 13 7 - - ENE 1017,9 22 0,0
19.06.2017 13:00:00 27,4 17,5 - 15 8 - - E 1018,4 15 0,0
19.06.2017 12:00:00 26,8 17,8 - 13 7 - - E 1018,5 23 0,0
19.06.2017 11:00:00 25,8 18,1 - 15 8 - - E 1018,5 20 0,0
19.06.2017 10:00:00 24,2 17,2 24,5 15 8 - - E 1018,7 24 0,0
19.06.2017 09:00:00 23,1 16,8 - 13 7 - - E 1018,8 20 0,0
19.06.2017 08:00:00 21,5 16,6 - 15 8 - - E 1018,9 27 0,0
19.06.2017 07:00:00 19,5 16,2 - 11 6 - - E 1018,9 19 0,0
19.06.2017 06:00:00 17,1 15,1 - 11 6 - - ENE 1018,9 23 0,0
19.06.2017 05:00:00 15,9 14,5 - 8 4 - - NNE 1019,3 24 0,0
19.06.2017 04:00:00 15,6 14,1 - 4 2 - - N 1019,8 21 0,0
19.06.2017 03:00:00 16,3 14,0 - 8 4 - - ENE 1020,1 17 0,0
19.06.2017 02:00:00 16,6 14,1 - 5 3 - - ENE 1020,5 30 0,0
19.06.2017 01:00:00 17,3 14,1 - 8 4 - - ENE 1020,9 24 0,0
19.06.2017 00:00:00 17,6 14,5 - 5 3 - - ENE 1021,1 21 0,0
18.06.2017 23:00:00 18,2 14,0 - 4 2 - - NE 1021,3 20 0,0

tt = temperature
td = dewpoint
tt 5cm = temperature 5cm
ff = wind speed
fx = gusts
dd = wind direction
ppp = reduced air pressure
vv = visibility
rr = precipitation

Next stations